Time,TemperatureF,DewpointF,PressureIn,WindDirection,WindDirectionDegrees,WindSpeedMPH,WindSpeedGustMPH,Humidity,HourlyPrecipIn,Conditions,Clouds,dailyrainin,SoftwareType,DateUTC
2013-01-22 00:00:00,18.6,8.5,30.55,East,87,0.0,0.0,64,0.00,,SKC,0.00,VWS V12.07,2013-01-22 07:00:00,
2013-01-22 00:30:00,18.4,8.6,30.53,East,87,0.0,0.0,65,0.00,,SKC,0.00,VWS V12.07,2013-01-22 07:30:00,
2013-01-22 01:00:00,17.3,8.6,30.55,East,87,0.0,0.0,68,0.00,,SKC,0.00,VWS V12.07,2013-01-22 08:00:00,
2013-01-22 01:30:00,18.1,9.3,30.55,East,87,0.0,0.0,68,0.00,,SKC,0.00,VWS V12.07,2013-01-22 08:30:00,
2013-01-22 02:00:00,19.1,9.3,30.53,East,87,0.0,0.0,65,0.00,,SKC,0.00,VWS V12.07,2013-01-22 09:00:00,
2013-01-22 02:30:00,19.5,9.3,30.53,East,87,0.0,0.0,64,0.00,,SKC,0.00,VWS V12.07,2013-01-22 09:30:00,
2013-01-22 03:30:00,21.0,9.3,30.56,East,87,0.0,0.0,60,0.00,,SKC,0.00,VWS V12.07,2013-01-22 10:30:00,
2013-01-22 04:00:00,20.0,8.7,30.58,East,87,0.0,0.0,61,0.00,,SKC,0.00,VWS V12.07,2013-01-22 11:00:00,
2013-01-22 04:30:00,17.0,7.3,30.59,East,87,0.0,0.0,65,0.00,,SKC,0.00,VWS V12.07,2013-01-22 11:30:00,
2013-01-22 05:00:00,18.1,9.3,30.59,East,87,0.0,0.0,68,0.00,,SKC,0.00,VWS V12.07,2013-01-22 12:00:00,
2013-01-22 05:30:00,17.8,7.7,30.59,East,87,0.0,0.0,64,0.00,,SKC,0.00,VWS V12.07,2013-01-22 12:30:00,
2013-01-22 06:01:00,17.2,8.1,30.60,East,87,0.0,0.0,67,0.00,,SKC,0.00,VWS V12.07,2013-01-22 13:01:00,
2013-01-22 06:30:00,18.6,8.8,30.55,East,87,0.0,0.0,65,0.00,,SKC,0.00,VWS V12.07,2013-01-22 13:30:00,
2013-01-22 07:00:00,18.3,8.2,30.57,East,87,0.0,0.0,64,0.00,,SKC,0.00,VWS V12.07,2013-01-22 14:00:00,
2013-01-22 07:30:00,19.7,9.2,30.58,East,87,0.0,0.0,63,0.00,,SKC,0.00,VWS V12.07,2013-01-22 14:30:00,
2013-01-22 08:00:00,18.4,8.6,30.59,East,87,0.0,0.0,65,0.00,,SKC,0.00,VWS V12.07,2013-01-22 15:00:00,
2013-01-22 08:30:00,19.7,8.1,30.58,East,87,0.0,0.0,60,0.00,,SKC,0.00,VWS V12.07,2013-01-22 15:30:00,
2013-01-22 09:01:00,22.2,8.5,30.57,East,87,0.0,0.0,55,0.00,,SKC,0.00,VWS V12.07,2013-01-22 16:01:00,
2013-01-22 09:30:00,23.5,8.5,30.58,East,87,0.0,0.0,52,0.00,,SKC,0.00,VWS V12.07,2013-01-22 16:30:00,
2013-01-22 10:01:00,21.6,8.7,30.60,East,87,0.0,0.0,57,0.00,,SKC,0.00,VWS V12.07,2013-01-22 17:01:00,
2013-01-22 10:30:00,29.0,11.8,30.52,East,87,0.0,0.0,48,0.00,,SKC,0.00,VWS V12.07,2013-01-22 17:30:00,
2013-01-22 11:00:00,29.1,12.8,30.51,East,87,0.0,0.0,50,0.00,,SKC,0.00,VWS V12.07,2013-01-22 18:00:00,
2013-01-22 11:30:00,29.5,13.6,30.49,East,87,0.0,0.0,51,0.00,,SKC,0.00,VWS V12.07,2013-01-22 18:30:00,
2013-01-22 12:00:00,30.9,14.0,30.47,East,87,0.0,1.0,49,0.00,,SKC,0.00,VWS V12.07,2013-01-22 19:00:00,
2013-01-22 12:30:00,31.9,13.0,30.46,East,87,0.0,0.0,45,0.01,,SKC,0.01,VWS V12.07,2013-01-22 19:30:00,
2013-01-22 13:00:00,31.8,13.4,30.45,East,87,0.0,1.0,46,0.01,,SKC,0.01,VWS V12.07,2013-01-22 20:00:00,
2013-01-22 13:30:00,30.1,12.8,30.45,East,87,0.0,0.0,48,0.01,,SKC,0.01,VWS V12.07,2013-01-22 20:30:00,
2013-01-22 14:00:00,32.9,13.4,30.42,East,87,0.0,0.0,44,0.01,,SKC,0.01,VWS V12.07,2013-01-22 21:00:00,
2013-01-22 14:30:00,32.7,13.7,30.43,East,87,0.0,0.0,45,0.00,,SKC,0.01,VWS V12.07,2013-01-22 21:30:00,
2013-01-22 15:00:00,30.4,14.0,30.44,East,87,0.0,1.0,50,0.00,,SKC,0.01,VWS V12.07,2013-01-22 22:00:00,
2013-01-22 15:30:00,30.3,12.5,30.43,East,87,0.0,0.0,47,0.00,,SKC,0.01,VWS V12.07,2013-01-22 22:30:00,
2013-01-22 16:01:00,28.7,12.0,30.43,East,87,0.0,0.0,49,0.00,,SKC,0.01,VWS V12.07,2013-01-22 23:01:00,
2013-01-22 16:30:00,29.4,13.1,30.42,East,87,0.0,0.0,50,0.00,,SKC,0.01,VWS V12.07,2013-01-22 23:30:00,
2013-01-22 17:01:00,27.6,11.9,30.42,East,87,0.0,0.0,51,0.00,,SKC,0.01,VWS V12.07,2013-01-23 00:01:00,
2013-01-22 17:30:00,24.5,11.5,30.47,East,87,0.0,0.0,57,0.00,,SKC,0.01,VWS V12.07,2013-01-23 00:30:00,
2013-01-22 18:00:00,23.2,11.0,30.47,East,87,0.0,0.0,59,0.00,,SKC,0.01,VWS V12.07,2013-01-23 01:00:00,
2013-01-22 18:30:00,22.2,10.8,30.48,East,87,0.0,0.0,61,0.00,,SKC,0.01,VWS V12.07,2013-01-23 01:30:00,
2013-01-22 19:30:00,23.3,12.9,30.45,East,87,0.0,0.0,64,0.00,,SKC,0.01,VWS V12.07,2013-01-23 02:30:00,
2013-01-22 20:00:00,22.1,11.8,30.47,East,87,0.0,0.0,64,0.00,,SKC,0.01,VWS V12.07,2013-01-23 03:00:00,
2013-01-22 20:30:00,23.0,13.0,30.44,East,87,0.0,0.0,65,0.00,,SKC,0.01,VWS V12.07,2013-01-23 03:30:00,
2013-01-22 21:00:00,25.8,12.3,30.44,East,87,0.0,0.0,56,0.00,,SKC,0.01,VWS V12.07,2013-01-23 04:00:00,
2013-01-22 21:30:00,23.3,11.9,30.45,East,87,0.0,0.0,61,0.00,,SKC,0.01,VWS V12.07,2013-01-23 04:30:00,
2013-01-22 22:30:00,26.7,10.6,30.42,East,87,0.0,0.0,50,0.00,,SKC,0.01,VWS V12.07,2013-01-23 05:30:00,
2013-01-22 23:00:00,26.4,10.7,30.41,East,87,0.0,0.0,51,0.00,,SKC,0.01,VWS V12.07,2013-01-23 06:00:00,
2013-01-22 23:30:00,29.1,11.4,30.37,East,87,0.0,0.0,47,0.00,,SKC,0.01,VWS V12.07,2013-01-23 06:30:00,